Regional Weather Roundup
Issued by NWS

Home | Current Version | Previous Version | Graphics & Text | Print | Product List | Glossary On
Versions: 1 2 3 4 5 6 7 8 9 10 11 12 13 14 15 16 17 18 19 20 21 22 23 24 25 26 27 28 29 30 31 32 33 34 35 36 37 38 39 40 41 42 43 44 45 46 47 48 49 50
000
ASUS43 KFSD 251402
RWRSD

WEATHER ROUNDUP FOR SOUTH DAKOTA
NATIONAL WEATHER SERVICE SIOUX FALLS SD
900 AM CDT FRI MAY 25 2018

NOTE: "FAIR" INDICATES FEW OR NO CLOUDS BELOW 12,000 FEET WITH NO
SIGNIFICANT WEATHER AND/OR OBSTRUCTIONS TO VISIBILITY.


SDZ001>005-009-010-012>017-251500-
NORTHWEST AND NORTH CENTRAL SOUTH DAKOTA

CITY           SKY/WX    TMP DP  RH WIND       PRES   REMARKS
BUFFALO          N/A     70  55  59 W9        29.85S
FAITH            N/A     71  61  70 W12       29.87S
MOBRIDGE       SUNNY     72  59  63 SW3       29.79S
$$

SDZ012>016-024>037-041>051-057-063-072>074-251500-
SOUTHWEST AND SOUTH CENTRAL SOUTH DAKOTA

CITY           SKY/WX    TMP DP  RH WIND       PRES   REMARKS
RAPID CTY ARPT SUNNY     71  58  63 W8        29.93S
PIERRE         MOSUNNY   75  60  59 W3        29.81F
CUSTER         SUNNY     67  45  45 N3        30.07S
ELLSWORTH AFB  SUNNY     70  59  66 N7        29.93S
PHILIP         SUNNY     67  62  84 SW8       29.87S
PINE RIDGE     SUNNY     68  56  65 W6        29.95F
SPEARFISH      FAIR      68  54  60 W5        29.99F
WINNER         FAIR      72  61  68 NW5       29.88R
$$

SDZ004>011-016>023-039-040-251500-
NORTHEAST SOUTH DAKOTA

CITY           SKY/WX    TMP DP  RH WIND       PRES   REMARKS
ABERDEEN       SUNNY     76  59  55 SW8       29.78F
WATERTOWN      SUNNY     74  63  68 W8        29.81S
BROOKINGS      SUNNY     70  63  78 CALM      29.83S
SISSETON         N/A     78  60  53 SW6       29.75F
$$

SDZ017-020-022-023-036>040-048>070-251500-
SOUTHEAST SOUTH DAKOTA

CITY           SKY/WX    TMP DP  RH WIND       PRES   REMARKS
SIOUX FALLS    MOSUNNY   75  66  73 W3        29.83S
HURON          MOSUNNY   75  66  73 S5        29.80F
CHAMBERLAIN    LGT RAIN  70  66  88 W9        29.87S
MITCHELL       SUNNY     76  63  64 SW5       29.82S
YANKTON        SUNNY     73  63  70 SW3       29.84S
$$

ABBREVIATIONS USED IN REMARKS
   TC - TEMPERATURE IN CELSIUS
  WCI - WIND CHILL INDEX
   HX - HEAT INDEX
  VSB - VISIBILITY





USA.gov is the U.S. government's official web portal to all federal, state and local government web resources and services.